VA7IM-13 Weather Reports


time (UTC)temp
C
wind
direction
speed
KPH
gust
KPH
rain 1hr
cm
rain 24hr
cm
rain mn
cm
humidity
%
barometer
mb
20260506023157 -17 6.4 6.4 0.00 0.00 0.00
20260506022659 16 12.9 12.9 0.00 0.00 0.00
20260506013659 -17 158 14.5 14.5 0.00 0.00 0.00
20260506013159 -17 180 6.4 6.4 0.00 0.00 0.00
20260506011157 18 45 8.0 8.0 0.00 0.00 0.00
20260506010657 -17 180 6.4 6.4 0.00 0.00 0.00
20260506010157 17 158 8.0 14.5 0.00 0.00 0.00
20260506000158 18 90 8.0 11.3 0.00 0.00 0.00
20260505235658 -17 135 9.7 9.7 0.00 0.00 0.00
20260505235157 19 158 11.3 14.5 0.00 0.00 0.00
20260505234657 19 16.1 16.1 0.00 0.00 0.00
20260505234159 18 113 11.3 14.5 0.00 0.00 0.00
20260505233659 18 113 12.9 16.1 0.00 0.00 0.00
20260505232657 19 203 9.7 14.5 0.00 0.00 0.00
20260505232157 -17 14.5 17.7 0.00 0.00 0.00
20260505231657 19 113 8.0 9.7 0.00 0.00 0.00
20260505231158 19 23 9.7 11.3 0.00 0.00 0.00
20260505230659 19 8.0 8.0 0.00 0.00 0.00
20260505230159 -17 11.3 11.3 0.00 0.00 0.00
20260505225659 19 158 16.1 20.9 0.00 0.00 0.00
20260505225159 -17 45 6.4 6.4 0.00 0.00 0.00
20260505224659 20 113 8.0 12.9 0.00 0.00 0.00
20260505224157 18 203 9.7 12.9 0.00 0.00 0.00
20260505223657 19 113 8.0 12.9 0.00 0.00 0.00
20260505223157 18 68 11.3 14.5 0.00 0.00 0.00
20260505222657 19 225 11.3 16.1 0.00 0.00 0.00
20260505222158 20 158 9.7 11.3 0.00 0.00 0.00
20260505221658 -17 9.7 14.5 0.00 0.00 0.00
20260505221157 19 113 9.7 12.9 0.00 0.00 0.00
20260505220658 20 135 8.0 14.5 0.00 0.00 0.00
20260505220159 19 113 9.7 12.9 0.00 0.00 0.00
20260505215658 -17 9.7 16.1 0.00 0.00 0.00
20260505215157 20 203 14.5 20.9 0.00 0.00 0.00
20260505214658 20 180 9.7 11.3 0.00 0.00 0.00
20260505214159 19 338 11.3 16.1 0.00 0.00 0.00
20260505213659 20 158 8.0 11.3 0.00 0.00 0.00
20260505213159 19 203 12.9 19.3 0.00 0.00 0.00
20260505212657 19 180 11.3 14.5 0.00 0.00 0.00
20260505212158 18 180 6.4 12.9 0.00 0.00 0.00
20260505211658 18 158 9.7 14.5 0.00 0.00 0.00
20260505211157 19 180 11.3 19.3 0.00 0.00 0.00
20260505210658 19 113 9.7 12.9 0.00 0.00 0.00
20260505210159 19 113 14.5 16.1 0.00 0.00 0.00
20260505205701 -17 158 6.4 6.4 0.00 0.00 0.00
20260505205158 18 135 11.3 14.5 0.00 0.00 0.00
20260505204657 -17 45 9.7 11.3 0.00 0.00 0.00
20260505204157 20 68 9.7 11.3 0.00 0.00 0.00
20260505203659 18 225 12.9 16.1 0.00 0.00 0.00
20260505203157 19 90 9.7 12.9 0.00 0.00 0.00
20260505202657 18 90 12.9 14.5 0.00 0.00 0.00
20260505202158 18 8.0 17.7 0.00 0.00 0.00
20260505201659 18 225 11.3 12.9 0.00 0.00 0.00
20260505200159 18 113 9.7 11.3 0.00 0.00 0.00
20260505195659 18 45 9.7 14.5 0.00 0.00 0.00
20260505195159 -17 12.9 16.1 0.00 0.00 0.00
20260505194657 18 203 8.0 9.7 0.00 0.00 0.00
20260505194157 18 248 9.7 11.3 0.00 0.00 0.00
20260505193658 18 203 11.3 17.7 0.00 0.00 0.00
20260505193158 18 158 9.7 12.9 0.00 0.00 0.00
20260505192657 17 90 9.7 16.1 0.00 0.00 0.00
20260505192158 18 158 12.9 16.1 0.00 0.00 0.00
20260505191658 18 203 8.0 11.3 0.00 0.00 0.00
20260505191157 18 203 11.3 16.1 0.00 0.00 0.00
20260505190657 17 113 12.9 19.3 0.00 0.00 0.00
20260505190158 -17 158 11.3 14.5 0.00 0.00 0.00
20260505185659 17 180 9.7 14.5 0.00 0.00 0.00
20260505185158 17 135 12.9 17.7 0.00 0.00 0.00
20260505184657 17 135 12.9 16.1 0.00 0.00 0.00
20260505184158 -17 180 9.7 16.1 0.00 0.00 0.00
20260505183659 17 158 11.3 16.1 0.00 0.00 0.00
20260505183158 17 135 4.8 9.7 0.00 0.00 0.00
20260505182658 16 113 8.0 12.9 0.00 0.00 0.00
20260505182159 -17 12.9 14.5 0.00 0.00 0.00
20260505181659 16 113 11.3 14.5 0.00 0.00 0.00
20260505181158 16 203 12.9 16.1 0.00 0.00 0.00
20260505180658 15 203 8.0 9.7 0.00 0.00 0.00
20260505180159 15 113 6.4 6.4 0.00 0.00 0.00
20260505175659 15 180 8.0 9.7 0.00 0.00 0.00
20260505175159 15 113 6.4 14.5 0.00 0.00 0.00
20260505174659 14 135 9.7 14.5 0.00 0.00 0.00
20260505174159 13 158 9.7 12.9 0.00 0.00 0.00
20260505173658 13 180 11.3 17.7 0.00 0.00 0.00
20260505173158 14 180 9.7 14.5 0.00 0.00 0.00
20260505172658 13 45 11.3 19.3 0.00 0.00 0.00
20260505172157 13 158 9.7 12.9 0.00 0.00 0.00
20260505171658 14 180 8.0 9.7 0.00 0.00 0.00
20260505171158 14 90 9.7 12.9 0.00 0.00 0.00
20260505170657 14 180 9.7 14.5 0.00 0.00 0.00
20260505170158 -17 11.3 14.5 0.00 0.00 0.00
20260505165658 14 203 11.3 14.5 0.00 0.00 0.00
20260505165158 14 113 11.3 17.7 0.00 0.00 0.00
20260505164657 13 113 8.0 11.3 0.00 0.00 0.00
20260505164157 14 180 12.9 20.9 0.00 0.00 0.00
20260505163658 15 90 11.3 14.5 0.00 0.00 0.00
20260505163159 15 225 9.7 12.9 0.00 0.00 0.00
20260505162658 -17 8.0 14.5 0.00 0.00 0.00
20260505162157 15 270 12.9 19.3 0.00 0.00 0.00
20260505161658 14 225 11.3 14.5 0.00 0.00 0.00
20260505161158 15 180 8.0 16.1 0.00 0.00 0.00
20260505160658 14 180 12.9 14.5 0.00 0.00 0.00
20260505160159 -17 9.7 12.9 0.00 0.00 0.00
20260505153158 -17 6.4 9.7 0.00 0.00 0.00
20260505152657 -17 113 9.7 14.5 0.00 0.00 0.00
20260505152158 15 45 12.9 20.9 0.00 0.00 0.00
20260505151659 15 135 4.8 6.4 0.00 0.00 0.00
20260505151159 15 135 6.4 8.0 0.00 0.00 0.00
20260505150657 15 45 8.0 11.3 0.00 0.00 0.00
20260505150158 14 45 11.3 14.5 0.00 0.00 0.00
20260505140157 13 68 9.7 12.9 0.00 0.00 0.00
20260505120659 12 3.2 3.2 0.00 0.00 0.00
20260505102158 13 158 0.0 4.8 0.00 0.00 0.00
20260505101659 13 180 1.6 6.4 0.00 0.00 0.00
20260505101159 -17 1.6 6.4 0.00 0.00 0.00
20260505100658 14 90 6.4 9.7 0.00 0.00 0.00
20260505100158 -17 9.7 12.9 0.00 0.00 0.00
20260505095658 14 68 6.4 8.0 0.00 0.00 0.00
20260505095159 -17 11.3 14.5 0.00 0.00 0.00
20260505094659 14 158 4.8 6.4 0.00 0.00 0.00
20260505094158 14 158 6.4 6.4 0.00 0.00 0.00
20260505093657 -17 9.7 14.5 0.00 0.00 0.00
20260505093158 13 45 6.4 9.7 0.00 0.00 0.00
20260505092659 13 135 4.8 6.4 0.00 0.00 0.00
20260505092158 13 180 6.4 8.0 0.00 0.00 0.00
20260505091657 13 203 6.4 8.0 0.00 0.00 0.00
20260505091158 13 135 4.8 6.4 0.00 0.00 0.00
20260505090659 13 135 4.8 6.4 0.00 0.00 0.00
20260505090158 13 158 4.8 6.4 0.00 0.00 0.00
20260505085658 13 135 1.6 6.4 0.00 0.00 0.00
20260505085159 -17 0.0 3.2 0.00 0.00 0.00
20260505084659 13 135 3.2 6.4 0.00 0.00 0.00
20260505084159 13 158 0.0 0.0 0.00 0.00 0.00
20260505083659 13 135 0.0 0.0 0.00 0.00 0.00
20260505083158 14 158 0.0 0.0 0.00 0.00 0.00
20260505082659 14 158 0.0 0.0 0.00 0.00 0.00
20260505082159 14 158 0.0 0.0 0.00 0.00 0.00
20260505081659 14 158 0.0 0.0 0.00 0.00 0.00
20260505081159 15 113 3.2 6.4 0.00 0.00 0.00
20260505080659 15 135 4.8 6.4 0.00 0.00 0.00
20260505080158 15 180 4.8 6.4 0.00 0.00 0.00
20260505075657 15 135 0.0 0.0 0.00 0.00 0.00
20260505075157 15 68 0.0 0.0 0.00 0.00 0.00
20260505074658 15 135 3.2 6.4 0.00 0.00 0.00
20260505074158 15 158 0.0 0.0 0.00 0.00 0.00
20260505073657 -17 0.0 0.0 0.00 0.00 0.00
20260505073158 15 180 3.2 6.4 0.00 0.00 0.00
20260505072659 15 135 0.0 0.0 0.00 0.00 0.00
20260505072158 -17 0.0 0.0 0.00 0.00 0.00
20260505071657 15 203 0.0 4.8 0.00 0.00 0.00
20260505071157 15 113 0.0 0.0 0.00 0.00 0.00
20260505070658 15 225 1.6 6.4 0.00 0.00 0.00
20260505070158 15 203 0.0 0.0 0.00 0.00 0.00
20260505065657 15 203 0.0 0.0 0.00 0.00 0.00
20260505065158 16 135 0.0 0.0 0.00 0.00 0.00
20260505064659 16 180 0.0 0.0 0.00 0.00 0.00
20260505064159 -17 0.0 0.0 0.00 0.00 0.00
20260505063657 16 135 3.2 6.4 0.00 0.00 0.00
20260505063157 16 113 0.0 3.2 0.00 0.00 0.00
20260505062658 16 158 3.2 4.8 0.00 0.00 0.00
20260505062158 16 158 1.6 4.8 0.00 0.00 0.00
20260505061659 16 158 0.0 0.0 0.00 0.00 0.00
20260505061159 16 135 0.0 0.0 0.00 0.00 0.00
20260505060659 17 158 0.0 0.0 0.00 0.00 0.00
20260505060157 17 158 0.0 0.0 0.00 0.00 0.00
20260505055657 17 135 0.0 0.0 0.00 0.00 0.00
20260505055157 -17 0.0 0.0 0.00 0.00 0.00
20260505054658 17 158 0.0 0.0 0.00 0.00 0.00
20260505054159 17 180 0.0 0.0 0.00 0.00 0.00
20260505053658 17 180 0.0 0.0 0.00 0.00 0.00
20260505053157 -17 0.0 0.0 0.00 0.00 0.00
20260505052657 17 135 0.0 0.0 0.00 0.00 0.00
20260505052158 -17 0.0 0.0 0.00 0.00 0.00
20260505051658 18 180 0.0 0.0 0.00 0.00 0.00
20260505051158 18 113 0.0 0.0 0.00 0.00 0.00
20260505050659 18 135 0.0 0.0 0.00 0.00 0.00
20260505050159 18 180 0.0 0.0 0.00 0.00 0.00
20260505041658 20 158 0.0 0.0 0.00 0.00 0.00
20260505041158 20 158 0.0 0.0 0.00 0.00 0.00
20260505040659 -17 0.0 0.0 0.00 0.00 0.00
20260505040159 21 158 1.6 3.2 0.00 0.00 0.00
20260505035657 21 158 1.6 4.8 0.00 0.00 0.00
20260505035158 21 158 0.0 0.0 0.00 0.00 0.00
20260505034659 21 158 0.0 0.0 0.00 0.00 0.00
20260505034159 22 158 0.0 0.0 0.00 0.00 0.00
20260505033658 22 158 0.0 0.0 0.00 0.00 0.00
20260505033158 -17 0.0 0.0 0.00 0.00 0.00
20260505032659 22 180 0.0 0.0 0.00 0.00 0.00
20260505032159 22 180 3.2 6.4 0.00 0.00 0.00
20260505031658 23 158 3.2 6.4 0.00 0.00 0.00
20260505031159 23 158 4.8 6.4 0.00 0.00 0.00
20260505030659 23 135 0.0 0.0 0.00 0.00 0.00
20260505030158 -17 0.0 3.2 0.00 0.00 0.00
20260505025657 23 113 3.2 6.4 0.00 0.00 0.00
20260505025158 24 135 3.2 4.8 0.00 0.00 0.00
20260505024659 24 68 1.6 6.4 0.00 0.00 0.00
20260505024159 25 158 0.0 3.2 0.00 0.00 0.00
20260505023658 -17 0.0 0.0 0.00 0.00 0.00